Time,TemperatureF,DewpointF,PressureIn,WindDirection,WindDirectionDegrees,WindSpeedMPH,WindSpeedGustMPH,Humidity,HourlyPrecipIn,Conditions,Clouds,dailyrainin,SoftwareType,DateUTC
2013-01-12 00:02:00,42.0,38.0,30.56,NNW,347,1.0,3.0,84,-99.99,,,-99.99,,2013-01-12 08:02:00,
2013-01-12 00:11:00,42.0,38.0,30.56,NNW,347,1.0,3.0,84,-99.99,,,-99.99,,2013-01-12 08:11:00,
2013-01-12 00:22:00,42.0,38.0,30.55,North,359,0.0,2.0,84,-99.99,,,-99.99,,2013-01-12 08:22:00,
2013-01-12 00:32:00,42.0,38.0,30.55,North,352,1.0,3.0,84,-99.99,,,-99.99,,2013-01-12 08:32:00,
2013-01-12 00:42:00,42.0,38.0,30.55,North,352,1.0,3.0,84,-99.99,,,-99.99,,2013-01-12 08:42:00,
2013-01-12 00:52:00,42.0,38.0,30.55,North,0,0.0,3.0,85,-99.99,,,-99.99,,2013-01-12 08:52:00,
2013-01-12 01:02:00,41.0,37.0,30.56,West,263,0.0,2.0,85,-99.99,,,-99.99,,2013-01-12 09:02:00,
2013-01-12 01:11:00,41.0,37.0,30.56,West,263,0.0,2.0,85,-99.99,,,-99.99,,2013-01-12 09:11:00,
2013-01-12 01:22:00,40.0,36.0,30.57,NNW,339,2.0,2.0,85,-99.99,,,-99.99,,2013-01-12 09:22:00,
2013-01-12 01:32:00,41.0,37.0,30.57,NNW,346,3.0,7.0,87,-99.99,,,-99.99,,2013-01-12 09:32:00,
2013-01-12 01:42:00,41.0,37.0,30.57,NNW,346,3.0,7.0,87,-99.99,,,-99.99,,2013-01-12 09:42:00,
2013-01-12 01:52:00,41.0,37.0,30.57,NE,45,2.0,5.0,86,-99.99,,,-99.99,,2013-01-12 09:52:00,
2013-01-12 02:02:00,41.0,37.0,30.57,NNE,18,0.0,3.0,85,-99.99,,,-99.99,,2013-01-12 10:02:00,
2013-01-12 02:11:00,41.0,37.0,30.57,NNE,18,0.0,3.0,85,-99.99,,,-99.99,,2013-01-12 10:11:00,
2013-01-12 02:22:00,40.0,36.0,30.58,East,85,0.0,2.0,84,-99.99,,,-99.99,,2013-01-12 10:22:00,
2013-01-12 02:32:00,40.0,36.0,30.58,North,0,0.0,2.0,84,-99.99,,,-99.99,,2013-01-12 10:32:00,
2013-01-12 02:42:00,40.0,36.0,30.58,North,0,0.0,2.0,84,-99.99,,,-99.99,,2013-01-12 10:42:00,
2013-01-12 02:52:00,40.0,36.0,30.58,NW,312,1.0,2.0,84,-99.99,,,-99.99,,2013-01-12 10:52:00,
2013-01-12 03:02:00,39.0,35.0,30.58,WNW,294,0.0,1.0,85,-99.99,,,-99.99,,2013-01-12 11:02:00,
2013-01-12 03:11:00,39.0,35.0,30.58,WNW,287,0.0,2.0,86,-99.99,,,-99.99,,2013-01-12 11:11:00,
2013-01-12 03:22:00,39.0,35.0,30.58,WNW,287,0.0,2.0,86,-99.99,,,-99.99,,2013-01-12 11:22:00,
2013-01-12 03:32:00,39.0,35.0,30.58,WNW,289,1.0,1.0,86,-99.99,,,-99.99,,2013-01-12 11:32:00,
2013-01-12 03:42:00,39.0,35.0,30.58,WNW,289,1.0,1.0,86,-99.99,,,-99.99,,2013-01-12 11:42:00,
2013-01-12 03:52:00,39.0,35.0,30.58,WNW,289,0.0,1.0,86,-99.99,,,-99.99,,2013-01-12 11:52:00,
2013-01-12 04:02:00,39.0,35.0,30.59,WNW,294,1.0,1.0,86,-99.99,,,-99.99,,2013-01-12 12:02:00,
2013-01-12 04:11:00,39.0,35.0,30.59,WNW,294,1.0,1.0,86,-99.99,,,-99.99,,2013-01-12 12:11:00,
2013-01-12 04:22:00,39.0,35.0,30.60,WNW,295,1.0,2.0,86,-99.99,,,-99.99,,2013-01-12 12:22:00,
2013-01-12 04:32:00,38.0,34.0,30.59,NE,35,1.0,2.0,86,-99.99,,,-99.99,,2013-01-12 12:32:00,
2013-01-12 04:42:00,38.0,34.0,30.59,NE,35,1.0,2.0,86,-99.99,,,-99.99,,2013-01-12 12:42:00,
2013-01-12 04:52:00,38.0,34.0,30.60,NE,40,3.0,6.0,86,-99.99,,,-99.99,,2013-01-12 12:52:00,
2013-01-12 05:02:00,38.0,34.0,30.60,NNE,21,2.0,6.0,86,-99.99,,,-99.99,,2013-01-12 13:02:00,
2013-01-12 05:11:00,38.0,34.0,30.60,NNE,21,2.0,6.0,86,-99.99,,,-99.99,,2013-01-12 13:11:00,
2013-01-12 05:22:00,38.0,34.0,30.60,NE,44,1.0,5.0,86,-99.99,,,-99.99,,2013-01-12 13:22:00,
2013-01-12 05:32:00,38.0,34.0,30.60,NNE,14,2.0,5.0,86,-99.99,,,-99.99,,2013-01-12 13:32:00,
2013-01-12 05:42:00,38.0,34.0,30.60,NNE,14,2.0,5.0,86,-99.99,,,-99.99,,2013-01-12 13:42:00,
2013-01-12 05:52:00,38.0,34.0,30.60,NNE,23,2.0,3.0,86,-99.99,,,-99.99,,2013-01-12 13:52:00,
2013-01-12 06:02:00,38.0,34.0,30.60,NE,44,1.0,8.0,87,-99.99,,,-99.99,,2013-01-12 14:02:00,
2013-01-12 06:12:00,38.0,34.0,30.60,NE,44,1.0,8.0,87,-99.99,,,-99.99,,2013-01-12 14:12:00,
2013-01-12 06:22:00,38.0,34.0,30.61,NE,54,0.0,6.0,87,-99.99,,,-99.99,,2013-01-12 14:22:00,
2013-01-12 06:32:00,37.0,34.0,30.61,NE,51,2.0,3.0,87,-99.99,,,-99.99,,2013-01-12 14:32:00,
2013-01-12 06:42:00,37.0,34.0,30.61,NE,51,2.0,3.0,87,-99.99,,,-99.99,,2013-01-12 14:42:00,
2013-01-12 06:53:00,37.0,34.0,30.61,NE,49,1.0,5.0,88,-99.99,,,-99.99,,2013-01-12 14:53:00,
2013-01-12 07:03:00,37.0,34.0,30.62,NE,47,2.0,8.0,88,-99.99,,,-99.99,,2013-01-12 15:03:00,
2013-01-12 07:12:00,37.0,34.0,30.63,ENE,58,2.0,7.0,88,-99.99,,,-99.99,,2013-01-12 15:12:00,
2013-01-12 07:22:00,37.0,34.0,30.63,ENE,58,2.0,7.0,88,-99.99,,,-99.99,,2013-01-12 15:22:00,
2013-01-12 07:33:00,37.0,34.0,30.64,NE,37,0.0,2.0,88,-99.99,,,-99.99,,2013-01-12 15:33:00,
2013-01-12 07:42:00,37.0,34.0,30.64,NE,37,0.0,2.0,88,-99.99,,,-99.99,,2013-01-12 15:42:00,
2013-01-12 07:52:00,37.0,34.0,30.65,NE,37,0.0,1.0,88,-99.99,,,-99.99,,2013-01-12 15:52:00,
2013-01-12 08:02:00,37.0,34.0,30.66,NE,34,1.0,1.0,88,-99.99,,,-99.99,,2013-01-12 16:02:00,
2013-01-12 08:12:00,37.0,34.0,30.66,NE,34,1.0,1.0,88,-99.99,,,-99.99,,2013-01-12 16:12:00,
2013-01-12 08:22:00,37.0,34.0,30.67,NE,34,0.0,1.0,89,-99.99,,,-99.99,,2013-01-12 16:22:00,
2013-01-12 08:32:00,39.0,35.0,30.67,NE,48,3.0,6.0,86,-99.99,,,-99.99,,2013-01-12 16:32:00,
2013-01-12 08:42:00,39.0,35.0,30.68,NE,49,2.0,5.0,85,-99.99,,,-99.99,,2013-01-12 16:42:00,
2013-01-12 08:52:00,39.0,35.0,30.68,NE,49,2.0,5.0,85,-99.99,,,-99.99,,2013-01-12 16:52:00,
2013-01-12 09:02:00,39.0,35.0,30.68,East,93,1.0,2.0,84,-99.99,,,-99.99,,2013-01-12 17:02:00,
2013-01-12 09:12:00,39.0,35.0,30.68,East,93,1.0,2.0,84,-99.99,,,-99.99,,2013-01-12 17:12:00,
2013-01-12 09:22:00,40.0,36.0,30.68,NE,52,3.0,5.0,85,-99.99,,,-99.99,,2013-01-12 17:22:00,
2013-01-12 09:32:00,42.0,37.0,30.69,East,82,3.0,6.0,81,-99.99,,,-99.99,,2013-01-12 17:32:00,
2013-01-12 09:42:00,42.0,37.0,30.69,East,82,3.0,6.0,81,-99.99,,,-99.99,,2013-01-12 17:42:00,
2013-01-12 09:52:00,42.0,36.0,30.69,ENE,62,5.0,6.0,78,-99.99,,,-99.99,,2013-01-12 17:52:00,
2013-01-12 10:02:00,43.0,36.0,30.70,NNE,28,6.0,7.0,76,-99.99,,,-99.99,,2013-01-12 18:02:00,
2013-01-12 10:12:00,43.0,36.0,30.70,NNE,28,6.0,7.0,76,-99.99,,,-99.99,,2013-01-12 18:12:00,
2013-01-12 10:22:00,43.0,35.0,30.70,ENE,78,2.0,6.0,74,-99.99,,,-99.99,,2013-01-12 18:22:00,
2013-01-12 10:33:00,43.0,36.0,30.87,ESE,112,3.0,8.0,76,-99.99,,,-99.99,,2013-01-12 18:33:00,
2013-01-12 10:42:00,43.0,36.0,30.87,ESE,112,3.0,8.0,76,-99.99,,,-99.99,,2013-01-12 18:42:00,
2013-01-12 10:52:00,44.0,36.0,30.24,ENE,61,2.0,7.0,74,-99.99,,,-99.99,,2013-01-12 18:52:00,
2013-01-12 11:02:00,44.0,36.0,30.24,ENE,68,4.0,8.0,72,-99.99,,,-99.99,,2013-01-12 19:02:00,
2013-01-12 11:12:00,44.0,36.0,30.24,ENE,68,4.0,8.0,72,-99.99,,,-99.99,,2013-01-12 19:12:00,
2013-01-12 11:22:00,44.0,35.0,30.23,ESE,102,5.0,7.0,70,-99.99,,,-99.99,,2013-01-12 19:22:00,
2013-01-12 11:32:00,45.0,35.0,30.22,East,93,5.0,6.0,69,-99.99,,,-99.99,,2013-01-12 19:32:00,
2013-01-12 11:43:00,45.0,35.0,30.22,East,93,5.0,6.0,69,-99.99,,,-99.99,,2013-01-12 19:43:00,
2013-01-12 11:52:00,45.0,35.0,30.22,ESE,113,3.0,7.0,69,-99.99,,,-99.99,,2013-01-12 19:52:00,
2013-01-12 12:02:00,46.0,36.0,30.21,ESE,114,3.0,7.0,67,-99.99,,,-99.99,,2013-01-12 20:02:00,
2013-01-12 12:12:00,46.0,34.0,30.20,ESE,114,2.0,7.0,63,-99.99,,,-99.99,,2013-01-12 20:12:00,
2013-01-12 12:22:00,46.0,34.0,30.20,ESE,114,2.0,7.0,63,-99.99,,,-99.99,,2013-01-12 20:22:00,
2013-01-12 12:32:00,47.0,34.0,30.19,SE,127,3.0,6.0,60,-99.99,,,-99.99,,2013-01-12 20:32:00,
2013-01-12 12:42:00,47.0,34.0,30.19,SE,127,3.0,6.0,60,-99.99,,,-99.99,,2013-01-12 20:42:00,
2013-01-12 12:52:00,47.0,33.0,30.19,SE,141,5.0,6.0,59,-99.99,,,-99.99,,2013-01-12 20:52:00,
2013-01-12 13:02:00,47.0,31.0,30.18,East,96,0.0,6.0,54,-99.99,,,-99.99,,2013-01-12 21:02:00,
2013-01-12 13:12:00,48.0,31.0,30.17,SSE,158,2.0,6.0,52,-99.99,,,-99.99,,2013-01-12 21:12:00,
2013-01-12 13:22:00,48.0,31.0,30.17,SSE,158,2.0,6.0,52,-99.99,,,-99.99,,2013-01-12 21:22:00,
2013-01-12 13:32:00,49.0,32.0,30.16,SSE,161,3.0,6.0,51,-99.99,,,-99.99,,2013-01-12 21:32:00,
2013-01-12 13:42:00,49.0,32.0,30.16,SSE,161,3.0,6.0,51,-99.99,,,-99.99,,2013-01-12 21:42:00,
2013-01-12 13:52:00,48.0,29.0,30.16,ESE,119,5.0,7.0,47,-99.99,,,-99.99,,2013-01-12 21:52:00,
2013-01-12 14:02:00,49.0,29.0,30.16,SSW,199,3.0,8.0,46,-99.99,,,-99.99,,2013-01-12 22:02:00,
2013-01-12 14:11:00,49.0,29.0,30.16,SSW,199,3.0,8.0,46,-99.99,,,-99.99,,2013-01-12 22:11:00,
2013-01-12 14:22:00,49.0,29.0,30.16,NNW,342,1.0,6.0,46,-99.99,,,-99.99,,2013-01-12 22:22:00,
2013-01-12 14:32:00,50.0,29.0,30.16,SSE,157,3.0,4.0,45,-99.99,,,-99.99,,2013-01-12 22:32:00,
2013-01-12 14:42:00,50.0,29.0,30.16,SSE,157,3.0,4.0,45,-99.99,,,-99.99,,2013-01-12 22:42:00,
2013-01-12 14:52:00,49.0,30.0,30.15,SW,220,3.0,5.0,48,-99.99,,,-99.99,,2013-01-12 22:52:00,
2013-01-12 15:02:00,49.0,29.0,30.15,SSW,212,6.0,6.0,45,-99.99,,,-99.99,,2013-01-12 23:02:00,
2013-01-12 15:12:00,50.0,29.0,30.14,SW,219,1.0,3.0,44,-99.99,,,-99.99,,2013-01-12 23:12:00,
2013-01-12 15:22:00,50.0,29.0,30.14,SW,219,1.0,3.0,44,-99.99,,,-99.99,,2013-01-12 23:22:00,
2013-01-12 15:32:00,50.0,29.0,30.14,SSW,200,4.0,6.0,44,-99.99,,,-99.99,,2013-01-12 23:32:00,
2013-01-12 15:42:00,50.0,29.0,30.14,SSW,200,4.0,6.0,44,-99.99,,,-99.99,,2013-01-12 23:42:00,
2013-01-12 15:52:00,49.0,28.0,30.14,SW,226,7.0,11.0,44,-99.99,,,-99.99,,2013-01-12 23:52:00,
2013-01-12 16:02:00,49.0,30.0,30.14,SW,226,7.0,10.0,47,-99.99,,,-99.99,,2013-01-13 00:02:00,
2013-01-12 16:12:00,49.0,30.0,30.14,SW,226,7.0,10.0,47,-99.99,,,-99.99,,2013-01-13 00:12:00,
2013-01-12 16:22:00,49.0,31.0,30.14,WSW,256,6.0,11.0,50,-99.99,,,-99.99,,2013-01-13 00:22:00,
2013-01-12 16:32:00,48.0,32.0,30.13,SW,233,5.0,9.0,53,-99.99,,,-99.99,,2013-01-13 00:32:00,
2013-01-12 16:42:00,48.0,32.0,30.13,SW,233,5.0,9.0,53,-99.99,,,-99.99,,2013-01-13 00:42:00,
2013-01-12 16:52:00,48.0,34.0,30.14,WSW,258,3.0,7.0,57,-99.99,,,-99.99,,2013-01-13 00:52:00,
2013-01-12 17:02:00,47.0,34.0,30.14,SW,229,2.0,7.0,60,-99.99,,,-99.99,,2013-01-13 01:02:00,
2013-01-12 17:11:00,47.0,34.0,30.14,SW,229,2.0,7.0,60,-99.99,,,-99.99,,2013-01-13 01:11:00,
2013-01-12 17:22:00,47.0,34.0,30.14,West,272,0.0,3.0,61,-99.99,,,-99.99,,2013-01-13 01:22:00,
2013-01-12 17:32:00,46.0,34.0,30.14,WSW,253,0.0,1.0,63,-99.99,,,-99.99,,2013-01-13 01:32:00,
2013-01-12 17:42:00,46.0,34.0,30.14,WSW,253,0.0,1.0,63,-99.99,,,-99.99,,2013-01-13 01:42:00,
2013-01-12 17:52:00,46.0,34.0,30.14,WSW,253,0.0,2.0,63,-99.99,,,-99.99,,2013-01-13 01:52:00,
2013-01-12 18:01:00,45.0,34.0,30.14,WSW,253,0.0,0.0,64,-99.99,,,-99.99,,2013-01-13 02:01:00,
2013-01-12 18:12:00,45.0,34.0,30.14,WSW,253,0.0,0.0,64,-99.99,,,-99.99,,2013-01-13 02:12:00,
2013-01-12 18:22:00,45.0,34.0,30.14,WSW,253,0.0,1.0,65,-99.99,,,-99.99,,2013-01-13 02:22:00,
2013-01-12 18:32:00,44.0,33.0,30.15,WSW,253,0.0,1.0,66,-99.99,,,-99.99,,2013-01-13 02:32:00,
2013-01-12 18:42:00,44.0,33.0,30.15,WSW,253,0.0,1.0,66,-99.99,,,-99.99,,2013-01-13 02:42:00,
2013-01-12 18:53:00,44.0,33.0,30.15,WSW,253,0.0,1.0,66,-99.99,,,-99.99,,2013-01-13 02:53:00,
2013-01-12 19:02:00,44.0,34.0,30.15,WSW,253,0.0,1.0,67,-99.99,,,-99.99,,2013-01-13 03:02:00,
2013-01-12 19:11:00,44.0,34.0,30.15,WSW,253,0.0,1.0,67,-99.99,,,-99.99,,2013-01-13 03:11:00,
2013-01-12 19:22:00,43.0,33.0,30.15,WSW,253,0.0,1.0,68,-99.99,,,-99.99,,2013-01-13 03:22:00,
2013-01-12 19:32:00,42.0,33.0,30.15,NNE,28,3.0,3.0,70,-99.99,,,-99.99,,2013-01-13 03:32:00,
2013-01-12 19:43:00,42.0,33.0,30.15,NNE,28,3.0,3.0,70,-99.99,,,-99.99,,2013-01-13 03:43:00,
2013-01-12 19:52:00,42.0,33.0,30.15,NNE,24,1.0,6.0,69,-99.99,,,-99.99,,2013-01-13 03:52:00,
2013-01-12 20:02:00,42.0,29.0,30.15,NNE,23,3.0,5.0,60,-99.99,,,-99.99,,2013-01-13 04:02:00,
2013-01-12 20:12:00,42.0,29.0,30.15,NNE,23,3.0,5.0,60,-99.99,,,-99.99,,2013-01-13 04:12:00,
2013-01-12 20:22:00,43.0,28.0,30.15,ENE,59,3.0,5.0,56,-99.99,,,-99.99,,2013-01-13 04:22:00,
2013-01-12 20:32:00,43.0,27.0,30.15,NE,47,1.0,5.0,53,-99.99,,,-99.99,,2013-01-13 04:32:00,
2013-01-12 20:42:00,43.0,27.0,30.15,NE,47,1.0,5.0,53,-99.99,,,-99.99,,2013-01-13 04:42:00,
2013-01-12 20:52:00,43.0,27.0,30.15,NE,47,1.0,5.0,53,-99.99,,,-99.99,,2013-01-13 04:52:00,
2013-01-12 21:00:00,42.0,26.0,30.15,NNE,23,2.0,5.0,53,-99.99,,,-99.99,,2013-01-13 05:00:00,
2013-01-12 21:03:00,42.0,26.0,30.15,NE,44,5.0,10.0,53,-99.99,,,-99.99,,2013-01-13 05:03:00,
2013-01-12 21:12:00,42.0,26.0,30.15,NE,44,5.0,10.0,53,-99.99,,,-99.99,,2013-01-13 05:12:00,
2013-01-12 21:22:00,42.0,26.0,30.15,NNE,23,2.0,5.0,53,-99.99,,,-99.99,,2013-01-13 05:22:00,
2013-01-12 21:32:00,42.0,26.0,30.15,NNE,23,2.0,5.0,53,-99.99,,,-99.99,,2013-01-13 05:32:00,
2013-01-12 21:42:00,42.0,26.0,30.15,NNE,23,2.0,5.0,53,-99.99,,,-99.99,,2013-01-13 05:42:00,
2013-01-12 21:52:00,42.0,26.0,30.15,NNE,23,2.0,5.0,53,-99.99,,,-99.99,,2013-01-13 05:52:00,
2013-01-12 22:33:00,40.0,24.0,30.15,NNE,17,2.0,6.0,53,-99.99,,,-99.99,,2013-01-13 06:33:00,
2013-01-12 22:42:00,40.0,24.0,30.15,NNE,17,2.0,6.0,53,-99.99,,,-99.99,,2013-01-13 06:42:00,
2013-01-12 22:52:00,40.0,24.0,30.16,North,6,2.0,3.0,53,-99.99,,,-99.99,,2013-01-13 06:52:00,
2013-01-12 23:02:00,40.0,26.0,30.16,NE,55,2.0,5.0,56,-99.99,,,-99.99,,2013-01-13 07:02:00,
2013-01-12 23:11:00,40.0,26.0,30.16,NE,55,2.0,5.0,56,-99.99,,,-99.99,,2013-01-13 07:11:00,
2013-01-12 23:22:00,39.0,26.0,30.16,ENE,73,1.0,3.0,60,-99.99,,,-99.99,,2013-01-13 07:22:00,
2013-01-12 23:32:00,38.0,27.0,30.17,ENE,64,1.0,3.0,64,-99.99,,,-99.99,,2013-01-13 07:32:00,
2013-01-12 23:42:00,38.0,27.0,30.17,ENE,64,1.0,3.0,64,-99.99,,,-99.99,,2013-01-13 07:42:00,
2013-01-12 23:52:00,38.0,27.0,30.17,North,359,2.0,3.0,65,-99.99,,,-99.99,,2013-01-13 07:52:00,